This is the latest recevied weather packets stored in our database for station/object OH6GKW. If no packets are shown the sender has not sent any weather packets the latest 10 day(s).
| Time | Temp. | Humidity | Pressure | Rain* | Wind** | Luminosity | Snow |
|---|---|---|---|---|---|---|---|
| 1777805327 | 7.22° C | 56% | 1006.1 hPa | 0.25 mm | - | 681 W/m² | - |
| 1777805022 | 7.22° C | 56% | 1006.1 hPa | 0.25 mm | - | 681 W/m² | - |
| 1777804716 | 7.22° C | 56% | 1006.1 hPa | 0.25 mm | - | 683 W/m² | - |
| 1777804427 | 7.22° C | 55% | 1006.1 hPa | 0.25 mm | - | 684 W/m² | - |
| 1777804116 | 7.22° C | 54% | 1006 hPa | 0.25 mm | - | 681 W/m² | - |
| 1777803829 | 7.78° C | 55% | 1006 hPa | 0.25 mm | - | 683 W/m² | - |
| 1777803523 | 7.78° C | 56% | 1006 hPa | 0.25 mm | - | 681 W/m² | - |
| 1777803219 | 7.22° C | 57% | 1006.1 hPa | 0.25 mm | - | 681 W/m² | - |
| 1777802917 | 7.22° C | 55% | 1006.1 hPa | 0.25 mm | - | 679 W/m² | - |
| 1777802612 | 7.22° C | 58% | 1006.1 hPa | 0.25 mm | - | 679 W/m² | - |
| 1777802333 | 7.22° C | 55% | 1006.1 hPa | 0.25 mm | - | 681 W/m² | - |
| 1777802024 | 7.78° C | 58% | 1006.1 hPa | 0.25 mm | - | 677 W/m² | - |
| 1777801716 | 7.22° C | 58% | 1006.1 hPa | 0.25 mm | - | 674 W/m² | - |
| 1777801427 | 7.22° C | 55% | 1006 hPa | 0.25 mm | - | 674 W/m² | - |
| 1777801119 | 7.78° C | 56% | 1006 hPa | 0.25 mm | - | 672 W/m² | - |
| 1777800816 | 7.22° C | 58% | 1006 hPa | 0.25 mm | - | 669 W/m² | - |
| 1777800523 | 7.22° C | 58% | 1006.2 hPa | 0.25 mm | - | 667 W/m² | - |
| 1777800214 | 7.22° C | 58% | 1006.2 hPa | 0.25 mm | - | 658 W/m² | - |
| 1777799936 | 7.22° C | 58% | 1006.2 hPa | 0.25 mm | - | 660 W/m² | - |
| 1777799634 | 7.22° C | 59% | 1005.9 hPa | 0.25 mm | - | 656 W/m² | - |
| 1777799329 | 7.22° C | 57% | 1005.9 hPa | 0.25 mm | - | 653 W/m² | - |
| 1777799023 | 7.22° C | 60% | 1005.9 hPa | 0.25 mm | - | 649 W/m² | - |
| 1777798713 | 6.67° C | 58% | 1005.9 hPa | 0.25 mm | - | 644 W/m² | - |
| 1777798424 | 6.67° C | 58% | 1005.9 hPa | 0.25 mm | - | 637 W/m² | - |
| 1777798115 | 6.67° C | 57% | 1005.9 hPa | 0.25 mm | - | 637 W/m² | - |
* Rain since midnight (hover to see other rain measurements)
** Current wind speed in m/s (hover to see current wind gust speed)